When you browse on this site, cookies collect data to enhance your experience and personalize the content and advertising you see.
Visit our Privacy Policy to learn more. By continuing to use the site, you agree to this use of cookies and data.
  • In Italy
  • List of Countries
  • For 7 days
  • Water Temperature
  • Satellite Maps
  • Weather Map
  • Weather Widgets
  • user-avatar
    Login

    Hourly Weather Airlie Beach

    Today, 17 November, Saturday

    Time Temperature Precipitation Wind Pressure Humidity
    00:00 +21°C° 0 mm 4 mps 746 mmHg 86%
    01:00 +21°C° 0 mm 4 mps 746 mmHg 88%
    02:00 +20°C° 0 mm 4 mps 746 mmHg 89%
    03:00 +20°C° 0 mm 3 mps 746 mmHg 91%
    04:00 +20°C° 0 mm 3 mps 746 mmHg 92%
    05:00 +22°C° 0 mm 3 mps 746 mmHg 84%
    06:00 +24°C° 0 mm 3 mps 746 mmHg 76%
    07:00 +26°C° 0 mm 3 mps 747 mmHg 67%
    08:00 +28°C° 0 mm 3 mps 747 mmHg 58%
    09:00 +30°C° 0 mm 3 mps 747 mmHg 48%
    10:00 +33°C° 0 mm 4 mps 747 mmHg 38%
    11:00 +34°C° 0 mm 4 mps 747 mmHg 35%
    12:00 +35°C° 0 mm 4 mps 746 mmHg 32%
    13:00 +35°C° 0 mm 5 mps 746 mmHg 29%
    14:00 +35°C° 0 mm 5 mps 746 mmHg 31%
    15:00 +34°C° 0 mm 5 mps 745 mmHg 33%
    16:00 +33°C° 0 mm 5 mps 745 mmHg 35%
    17:00 +29°C° 0 mm 4 mps 745 mmHg 47%
    18:00 +27°C° 0 mm 4 mps 745 mmHg 59%
    19:00 +24°C° 0 mm 3 mps 745 mmHg 70%
    20:00 +22°C° 0 mm 3 mps 746 mmHg 76%
    21:00 +22°C° 0 mm 3 mps 746 mmHg 82%
    22:00 +21°C° 0 mm 3 mps 746 mmHg 88%
    23:00 +21°C° 0 mm 3 mps 746 mmHg 90%

    Tomorrow, 18 November, Sunday

    Time Temperature Precipitation Wind Pressure Humidity
    00:00 +20°C° 0 mm 3 mps 746 mmHg 91%
    01:00 +20°C° 0 mm 2 mps 745 mmHg 92%
    02:00 +20°C° 0 mm 3 mps 745 mmHg 93%
    03:00 +20°C° 0 mm 3 mps 745 mmHg 94%
    04:00 +20°C° 0 mm 3 mps 745 mmHg 94%
    05:00 +22°C° 0 mm 3 mps 746 mmHg 87%
    06:00 +24°C° 0 mm 3 mps 746 mmHg 79%
    07:00 +26°C° 0 mm 4 mps 747 mmHg 72%
    08:00 +28°C° 0 mm 4 mps 747 mmHg 65%
    09:00 +29°C° 0 mm 4 mps 747 mmHg 58%
    10:00 +32°C° 0 mm 4 mps 747 mmHg 50%
    11:00 +33°C° 0 mm 4 mps 746 mmHg 47%
    12:00 +34°C° 0 mm 5 mps 746 mmHg 43%
    13:00 +35°C° 0 mm 5 mps 746 mmHg 39%
    14:00 +34°C° 0 mm 5 mps 745 mmHg 41%
    15:00 +33°C° 0 mm 5 mps 745 mmHg 42%
    16:00 +33°C° 0 mm 5 mps 745 mmHg 44%
    17:00 +29°C° 0 mm 5 mps 745 mmHg 55%
    18:00 +27°C° 0 mm 5 mps 745 mmHg 66%
    19:00 +25°C° 0 mm 5 mps 746 mmHg 77%
    20:00 +23°C° 0 mm 5 mps 746 mmHg 81%
    21:00 +23°C° 0 mm 4 mps 746 mmHg 85%
    22:00 +22°C° 0 mm 4 mps 747 mmHg 89%
    23:00 +22°C° 0 mm 4 mps 746 mmHg 89%

    Day after tomorrow, 19 November, Monday

    Time Temperature Precipitation Wind Pressure Humidity
    00:00 +22°C° 0 mm 4 mps 746 mmHg 88%
    01:00 +23°C° 0 mm 5 mps 746 mmHg 88%
    02:00 +23°C° 0 mm 5 mps 746 mmHg 87%
    03:00 +23°C° 0 mm 5 mps 746 mmHg 87%
    04:00 +23°C° 0 mm 5 mps 746 mmHg 87%
    05:00 +25°C° 0.1 mm 5 mps 746 mmHg 81%
    06:00 +26°C° 0.1 mm 5 mps 747 mmHg 75%
    07:00 +27°C° 0.1 mm 5 mps 747 mmHg 70%
    08:00 +28°C° 0 mm 5 mps 747 mmHg 63%
    09:00 +30°C° 0 mm 5 mps 747 mmHg 55%
    10:00 +33°C° 0 mm 5 mps 747 mmHg 48%
    11:00 +33°C° 0.1 mm 5 mps 747 mmHg 47%
    12:00 +33°C° 0.1 mm 5 mps 746 mmHg 47%
    13:00 +33°C° 0.1 mm 6 mps 746 mmHg 46%
    14:00 +33°C° 0 mm 6 mps 746 mmHg 47%
    15:00 +32°C° 0 mm 6 mps 745 mmHg 48%
    16:00 +32°C° 0 mm 5 mps 745 mmHg 50%
    17:00 +29°C° 0 mm 5 mps 745 mmHg 58%
    18:00 +27°C° 0 mm 5 mps 746 mmHg 66%
    19:00 +26°C° 0 mm 5 mps 746 mmHg 75%
    20:00 +25°C° 0 mm 5 mps 747 mmHg 79%
    21:00 +23°C° 0 mm 5 mps 747 mmHg 83%
    22:00 +23°C° 0 mm 5 mps 747 mmHg 87%
    23:00 +23°C° 0 mm 5 mps 747 mmHg 89%

    20 November, Tuesday

    Time Temperature Precipitation Wind Pressure Humidity
    00:00 +22°C° 0 mm 5 mps 747 mmHg 90%
    01:00 +22°C° 0 mm 4 mps 746 mmHg 92%
    02:00 +22°C° 0.2 mm 4 mps 746 mmHg 92%
    03:00 +22°C° 0.2 mm 4 mps 746 mmHg 93%
    04:00 +22°C° 0.2 mm 4 mps 746 mmHg 93%
    05:00 +23°C° 0.2 mm 4 mps 747 mmHg 87%
    06:00 +25°C° 0.2 mm 5 mps 747 mmHg 82%
    07:00 +26°C° 0.2 mm 5 mps 748 mmHg 76%
    08:00 +28°C° 0.1 mm 5 mps 748 mmHg 68%
    09:00 +29°C° 0.1 mm 5 mps 747 mmHg 60%
    10:00 +32°C° 0.1 mm 6 mps 747 mmHg 52%
    11:00 +33°C° 0 mm 6 mps 747 mmHg 51%
    12:00 +33°C° 0 mm 6 mps 746 mmHg 49%
    13:00 +33°C° 0 mm 6 mps 746 mmHg 48%
    14:00 +33°C° 0.1 mm 6 mps 745 mmHg 51%
    15:00 +32°C° 0.1 mm 6 mps 745 mmHg 54%
    16:00 +30°C° 0.1 mm 6 mps 744 mmHg 57%
    17:00 +28°C° 0.1 mm 6 mps 745 mmHg 66%
    18:00 +27°C° 0.1 mm 5 mps 745 mmHg 75%
    19:00 +25°C° 0.1 mm 5 mps 745 mmHg 83%
    20:00 +25°C° 0 mm 5 mps 746 mmHg 86%
    21:00 +23°C° 0 mm 5 mps 746 mmHg 89%
    22:00 +23°C° 0 mm 5 mps 746 mmHg 91%
    23:00 +23°C° 0 mm 5 mps 746 mmHg 92%

    21 November, Wednesday

    Time Temperature Precipitation Wind Pressure Humidity
    00:00 +22°C° 0 mm 4 mps 745 mmHg 93%
    01:00 +22°C° 0 mm 4 mps 745 mmHg 93%
    02:00 +22°C° 0 mm 4 mps 745 mmHg 93%
    03:00 +22°C° 0 mm 4 mps 744 mmHg 93%
    04:00 +22°C° 0 mm 5 mps 744 mmHg 93%
    05:00 +23°C° 0 mm 4 mps 745 mmHg 89%
    06:00 +25°C° 0 mm 4 mps 745 mmHg 84%
    07:00 +26°C° 0 mm 4 mps 745 mmHg 79%
    08:00 +28°C° 0 mm 4 mps 745 mmHg 69%
    09:00 +30°C° 0 mm 4 mps 745 mmHg 60%
    10:00 +33°C° 0 mm 4 mps 745 mmHg 50%
    11:00 +34°C° 0 mm 5 mps 745 mmHg 47%
    12:00 +35°C° 0 mm 5 mps 744 mmHg 44%
    13:00 +36°C° 0 mm 5 mps 744 mmHg 41%
    14:00 +35°C° 0 mm 6 mps 743 mmHg 44%
    15:00 +34°C° 0 mm 6 mps 743 mmHg 47%
    16:00 +33°C° 0 mm 6 mps 742 mmHg 50%
    17:00 +30°C° 0 mm 6 mps 743 mmHg 59%
    18:00 +28°C° 0 mm 6 mps 743 mmHg 68%
    19:00 +27°C° 0 mm 6 mps 743 mmHg 77%
    20:00 +26°C° 0 mm 6 mps 744 mmHg 80%
    21:00 +26°C° 0 mm 6 mps 744 mmHg 82%
    22:00 +26°C° 0 mm 5 mps 744 mmHg 84%
    23:00 +26°C° 0 mm 5 mps 744 mmHg 84%

    22 November, Thursday

    Time Temperature Precipitation Wind Pressure Humidity
    00:00 +26°C° 0 mm 5 mps 744 mmHg 84%
    01:00 +26°C° 0 mm 5 mps 743 mmHg 84%
    02:00 +26°C° 0 mm 5 mps 743 mmHg 85%
    03:00 +26°C° 0 mm 5 mps 743 mmHg 86%
    04:00 +26°C° 0 mm 5 mps 743 mmHg 87%
    05:00 +27°C° 0.1 mm 6 mps 743 mmHg 84%
    06:00 +28°C° 0.1 mm 6 mps 744 mmHg 80%
    07:00 +28°C° 0.1 mm 6 mps 745 mmHg 77%
    08:00 +30°C° 0.1 mm 6 mps 744 mmHg 70%
    09:00 +32°C° 0.1 mm 6 mps 744 mmHg 63%
    10:00 +34°C° 0.1 mm 7 mps 744 mmHg 56%
    11:00 +35°C° 0.1 mm 7 mps 744 mmHg 53%
    12:00 +36°C° 0.1 mm 7 mps 743 mmHg 49%
    13:00 +38°C° 0.1 mm 7 mps 742 mmHg 45%
    14:00 +38°C° 0 mm 7 mps 742 mmHg 45%
    15:00 +36°C° 0 mm 7 mps 742 mmHg 46%
    16:00 +36°C° 0 mm 7 mps 742 mmHg 46%
    17:00 +33°C° 0.3 mm 6 mps 742 mmHg 58%
    18:00 +30°C° 0.3 mm 6 mps 742 mmHg 71%
    19:00 +27°C° 0.3 mm 6 mps 743 mmHg 83%
    20:00 +27°C° 0.4 mm 5 mps 743 mmHg 85%
    21:00 +27°C° 0.4 mm 5 mps 743 mmHg 87%
    22:00 +27°C° 0.4 mm 5 mps 744 mmHg 89%
    23:00 +27°C° 1.9 mm 5 mps 744 mmHg 88%
    Show more